Wind_Speed
18 17 17 17 17 15 14 14 13 12 10 9 8 8 8 7 6 6 6 6 5 6 6 6 6 7 7 8 8 7 8 8 8 9 9 10 11 11 11 10 10 10 9 9 8 8 8 8 8
18 17 17 17 18 17 16 16 14 12 10 10 9 8 8 7 6 6 6 6 7 7 7 6 6 7 7 8 8 7 8 8 8 9 10 10 10 10 10 9 9 9 8 8 8 8 7 7 7
19 18 18 18 19 18 18 17 15 13 11 10 9 9 8 8 7 7 6 6 7 7 8 8 7 7 7 7 7 7 8 8 8 9 9 9 9 9 9 8 9 8 8 8 8 7 7 6 6
18 19 19 19 19 19 19 18 16 14 12 11 10 9 8 8 8 7 7 7 8 8 8 7 8 7 7 7 8 8 9 9 10 9 9 9 9 9 9 8 8 8 8 7 6 6 5 5 5
19 20 21 20 20 20 20 18 16 14 12 11 11 10 9 9 9 9 9 8 9 9 9 9 9 8 8 8 8 9 9 9 9 9 9 9 9 9 8 8 8 8 7 6 6 4 4 4 4
20 21 21 20 20 20 20 20 18 15 13 12 12 11 10 11 11 10 10 9 9 10 10 10 10 9 9 9 8 8 7 7 8 8 7 7 7 8 8 8 7 6 6 5 4 4 4 4 4
20 20 20 19 20 20 20 20 19 16 15 14 13 12 12 12 12 11 11 11 11 10 10 10 11 11 10 9 9 8 8 8 7 7 6 6 6 6 6 6 5 4 4 4 4 4 4 4 4
21 20 18 19 20 21 20 20 19 17 16 15 14 13 12 13 13 12 11 11 12 11 10 11 11 11 10 10 9 9 8 8 7 7 7 6 6 6 5 4 4 3 3 3 3 3 3 4 3
20 17 17 19 20 20 20 20 19 18 17 16 15 14 13 13 14 13 12 11 12 11 11 11 11 11 10 10 9 9 8 8 8 7 7 6 5 5 4 3 2 2 2 3 3 3 3 3 3
17 16 18 19 20 20 20 19 20 19 18 17 16 15 15 14 14 13 13 12 12 12 11 11 11 12 11 10 10 9 8 7 7 7 6 6 5 4 4 3 2 2 2 3 2 2 1 1 2
15 16 17 19 20 19 19 19 19 20 19 18 17 17 16 16 15 14 14 13 13 12 12 12 12 12 12 11 10 9 9 8 7 7 6 6 5 5 4 3 3 3 2 2 1 1 1 1 1
13 15 17 18 20 20 19 19 20 19 19 18 18 17 16 15 15 15 14 14 13 13 13 13 14 13 12 11 10 10 9 8 8 8 7 6 5 5 4 4 4 3 2 1 1 0 0 1 1
11 14 16 17 19 18 18 19 19 19 19 18 17 17 17 16 16 15 15 14 14 13 13 13 13 13 12 11 10 10 10 9 9 8 7 5 5 4 4 3 3 3 2 2 1 1 1 2 2
9 12 14 16 17 17 17 18 18 18 18 17 17 16 16 17 16 16 15 15 14 13 12 13 12 12 11 11 11 10 10 9 9 8 7 6 5 3 3 2 2 2 2 2 3 2 2 2 2
7 8 11 13 15 16 16 16 17 17 17 16 15 16 15 16 16 16 15 14 13 13 13 13 12 12 11 11 10 10 9 8 7 7 6 6 5 4 3 3 2 2 2 2 2 2 2 2 2
5 6 7 9 12 13 14 15 16 15 16 15 15 14 14 14 14 15 15 15 14 13 13 13 13 12 11 11 10 10 9 8 7 6 6 6 6 5 4 4 3 3 2 3 3 3 3 3 3
3 5 6 8 10 12 12 13 13 14 14 14 14 13 13 13 13 13 13 13 13 13 12 12 12 12 11 11 10 10 9 8 8 7 6 6 6 6 5 4 3 3 3 4 3 4 4 4 4
2 2 3 5 8 10 11 11 12 12 13 13 13 13 13 13 13 13 12 12 12 12 11 11 12 11 11 10 10 9 8 8 8 8 7 7 7 6 5 5 5 4 4 4 3 4 4 5 5
2 1 2 4 5 7 8 9 10 10 10 11 12 12 12 12 12 12 12 11 11 11 11 11 11 11 10 10 10 9 8 8 8 8 8 8 7 7 7 6 5 6 5 5 4 4 5 5 5
6 3 1 2 2 4 7 7 8 8 9 9 10 10 10 10 10 11 11 11 11 11 10 10 10 10 9 9 9 9 9 8 7 7 7 8 8 7 7 6 6 7 6 6 5 5 5 5 5
9 7 3 2 1 3 5 5 5 7 7 8 8 9 9 9 9 9 9 10 10 10 10 10 10 9 9 9 9 9 9 8 8 7 7 7 7 7 6 6 7 7 7 7 7 6 6 6 6
12 10 7 5 4 4 5 5 3 4 5 6 6 7 8 8 8 9 9 9 9 9 9 9 9 9 9 8 8 8 8 8 7 7 7 7 7 6 6 7 7 8 8 8 8 7 7 7 7
14 13 12 11 9 7 7 7 4 3 5 5 4 5 6 6 7 7 7 7 8 8 8 8 9 8 8 8 8 8 8 8 7 7 7 7 7 6 7 7 8 8 8 9 8 8 8 8 8
17 16 15 14 12 10 8 9 6 4 4 5 4 4 3 4 4 5 6 6 6 6 7 7 7 7 7 7 7 8 8 8 7 7 7 7 7 7 7 7 8 9 9 9 9 8 9 9 9
18 18 17 17 15 12 11 11 8 5 5 6 5 4 3 2 3 4 5 5 5 5 6 6 6 7 7 7 7 7 7 8 7 8 7 7 7 7 7 8 8 9 9 9 9 9 9 9 10
18 19 18 17 15 13 14 14 9 6 6 6 5 4 4 3 2 3 4 4 5 6 7 6 6 6 7 7 7 6 7 8 7 8 8 8 7 7 7 8 8 9 9 9 9 9 9 9 10
20 19 18 18 17 17 16 14 11 8 7 7 5 5 5 4 2 3 3 4 5 6 6 7 7 7 7 7 7 6 7 8 7 9 9 9 8 7 7 8 8 9 9 10 10 10 9 10 10
23 20 18 20 20 19 17 16 13 11 8 8 7 5 4 3 4 3 4 4 5 5 6 7 8 8 8 9 9 8 7 7 8 9 9 9 9 9 9 9 9 10 10 11 11 10 10 10 11
24 22 20 20 19 18 18 17 13 12 9 8 8 7 5 5 4 4 5 5 6 7 7 8 8 9 9 10 10 10 9 9 10 10 10 10 10 10 10 10 10 11 12 12 12 11 12 12 12
24 23 22 21 19 17 18 17 14 13 11 10 9 9 8 6 5 5 5 6 7 7 8 9 10 11 11 11 11 11 10 10 11 11 11 11 11 11 11 11 12 13 13 13 13 13 13 13 13
Wind_Direction
59 55 53 51 53 50 47 48 48 49 49 49 49 55 61 69 76 77 76 82 82 79 81 87 89 92 99 109 115 116 115 121 119 120 121 120 123 123 122 126 126 127 128 130 133 135 132 130 128
56 53 53 51 50 46 44 45 46 48 52 53 51 52 61 66 72 76 76 78 83 85 88 90 92 97 103 108 117 121 118 119 119 124 124 122 121 123 124 126 128 129 130 131 137 141 134 132 131
55 53 49 50 47 42 40 41 43 48 54 57 56 57 61 64 67 77 81 81 78 86 93 95 93 97 105 114 117 118 118 119 118 121 125 122 125 125 122 126 128 128 128 135 140 139 134 131 133
54 52 47 46 44 42 39 39 42 48 50 55 61 62 64 68 67 76 81 77 78 90 96 98 98 99 105 112 112 114 114 113 118 117 122 120 121 125 126 125 128 132 134 139 140 138 139 139 138
51 49 46 44 46 43 41 41 43 47 49 54 61 62 68 72 72 77 84 82 83 89 94 95 95 101 107 109 111 111 110 115 116 115 117 120 123 124 126 127 128 131 132 133 137 142 141 143 137
51 49 46 46 46 46 45 46 47 48 50 53 60 65 71 73 75 81 85 87 86 86 87 92 90 91 93 98 102 110 106 105 111 117 113 118 119 121 124 122 123 128 134 136 137 136 132 134 139
50 47 47 46 44 47 48 48 50 51 53 56 60 68 72 77 78 82 86 88 87 86 85 88 94 91 94 94 97 98 102 106 112 111 106 110 116 118 118 119 118 118 126 129 133 136 138 139 141
51 46 47 45 44 46 48 49 51 53 53 55 61 69 74 78 81 82 85 89 88 88 88 87 93 94 92 92 92 93 95 99 106 107 110 111 113 122 120 114 112 110 121 125 132 144 143 145 153
50 43 46 45 46 49 49 50 52 53 55 58 62 67 74 76 80 81 82 86 86 87 87 90 92 93 92 89 93 93 92 95 100 102 104 110 112 112 115 114 109 111 111 113 114 124 139 140 147
49 44 48 47 48 50 51 51 49 52 54 58 61 67 71 74 78 82 82 82 84 85 84 86 91 91 91 86 85 85 87 92 97 99 99 102 103 102 105 102 97 105 116 120 123 126 131 151 164
52 52 50 50 49 50 51 50 50 52 52 56 62 68 70 72 75 79 81 83 85 84 82 84 89 88 89 86 81 80 81 83 89 91 92 95 96 94 94 98 91 95 110 126 128 134 179 190 187
57 57 54 49 48 48 50 51 52 52 50 53 60 67 68 70 72 78 81 82 84 86 85 84 84 85 85 84 81 79 77 77 79 80 83 85 82 78 73 81 78 80 83 98 88 24 200 253 263
64 57 54 50 48 48 48 52 52 51 50 51 56 60 65 69 73 77 80 80 80 83 86 87 85 84 83 80 78 79 79 77 74 67 72 71 69 69 62 64 66 67 60 46 22 357 333 306 278
78 66 59 53 49 45 45 49 52 51 49 52 57 60 63 66 71 73 76 78 80 82 84 85 84 83 80 75 74 78 77 73 71 68 64 61 60 54 49 50 47 41 31 28 19 0 337 325 302
91 75 64 57 51 46 42 43 47 49 48 50 55 59 62 66 68 70 71 72 74 77 81 83 83 83 79 76 72 72 75 75 72 68 61 53 47 38 29 36 40 37 19 11 6 347 346 340 327
102 87 67 58 51 42 36 42 44 49 47 46 52 58 61 63 66 69 70 70 71 74 77 78 77 78 77 76 75 70 69 69 67 63 57 50 46 41 35 35 36 36 29 17 357 348 341 340 336
94 87 63 52 50 38 35 40 42 46 44 44 50 56 59 60 62 65 67 69 70 72 73 73 72 74 74 73 72 69 66 63 59 57 54 46 40 39 37 32 32 32 16 1 351 347 342 338 333
71 62 56 40 41 34 31 35 41 48 46 45 47 51 57 58 58 59 62 65 67 67 68 69 69 69 69 71 70 69 67 63 57 52 47 40 36 38 36 34 28 23 13 1 350 339 342 333 328
184 114 52 36 38 22 21 24 36 40 44 45 48 47 51 54 56 56 57 59 62 63 63 64 63 62 63 65 64 63 62 61 56 51 46 41 38 40 38 35 24 16 9 4 357 344 340 336 334
195 201 190 48 36 355 357 6 22 31 39 45 47 47 48 49 52 54 53 54 58 60 59 59 59 60 62 61 57 56 56 53 49 46 42 39 38 38 34 33 28 21 15 6 360 355 346 340 334
198 211 222 268 299 318 321 332 6 25 27 38 45 49 51 49 49 50 49 50 54 57 56 57 57 58 59 59 56 53 50 45 40 36 35 34 30 30 36 33 26 22 15 10 7 359 351 345 341
207 216 225 246 255 277 288 305 339 9 15 28 44 45 49 49 47 46 46 45 48 51 51 52 54 55 56 57 52 46 42 38 35 31 27 26 24 25 27 25 20 19 14 8 5 360 353 348 343
211 217 225 236 239 249 263 277 293 323 341 10 28 40 46 52 49 41 42 41 42 44 43 43 46 47 49 49 44 37 32 30 26 23 18 16 16 19 18 16 11 6 3 1 2 1 355 352 349
209 215 223 235 236 243 248 263 271 285 329 340 350 2 16 45 54 44 38 34 33 34 36 36 35 35 38 39 35 28 23 19 15 14 13 11 11 12 10 5 1 358 355 356 355 353 349 347 346
213 216 223 229 234 237 242 253 262 275 311 318 313 316 329 17 40 42 34 29 18 17 19 21 23 21 22 25 25 21 16 11 7 8 7 4 4 3 359 357 353 350 350 347 346 345 343 341 341
219 219 226 231 233 242 246 253 257 266 283 300 301 291 293 308 342 11 15 10 8 8 9 9 10 9 7 7 9 7 4 3 5 6 2 357 352 350 349 349 349 348 347 343 339 340 339 337 337
220 225 229 233 239 244 244 247 251 255 269 278 279 270 278 295 313 354 355 353 349 353 358 357 359 360 360 359 358 357 356 358 0 359 355 355 347 337 337 343 348 349 347 342 336 334 334 333 333
223 227 232 233 235 242 241 246 252 256 258 257 257 261 279 283 306 320 327 332 328 336 342 338 340 344 346 343 343 344 348 345 347 351 351 350 346 340 338 342 343 343 342 337 333 333 333 331 330
224 229 231 235 243 247 247 250 250 251 257 263 256 260 264 266 273 288 302 309 314 320 324 326 328 332 333 333 333 335 335 336 338 344 348 346 342 341 339 340 338 335 335 334 333 330 333 331 328
225 230 233 238 242 246 253 254 252 252 257 262 258 262 267 265 267 277 294 301 303 305 310 314 317 320 322 324 325 326 327 327 330 334 335 335 334 333 334 333 331 330 329 327 329 327 327 328 324
Height
5893 5892 5891 5891 5890 5888 5886 5886 5885 5884 5883 5881 5880 5881 5881 5881 5881 5883 5880 5878 5878 5877 5877 5877 5876 5876 5877 5877 5877 5877 5877 5878 5878 5878 5878 5878 5879 5879 5880 5881 5881 5882 5882 5883 5883 5884 5885 5885 5886
5895 5894 5894 5893 5890 5889 5888 5886 5886 5885 5884 5882 5881 5882 5882 5881 5881 5880 5879 5878 5878 5878 5878 5878 5877 5877 5878 5878 5878 5879 5879 5879 5879 5880 5880 5880 5881 5881 5882 5882 5883 5883 5883 5884 5885 5885 5886 5886 5887
5897 5896 5896 5894 5892 5890 5889 5887 5886 5885 5884 5883 5883 5883 5882 5882 5881 5880 5880 5879 5879 5879 5879 5879 5879 5879 5879 5879 5880 5880 5880 5880 5880 5881 5881 5882 5882 5883 5883 5883 5883 5884 5885 5885 5885 5886 5887 5887 5888
5900 5899 5897 5895 5893 5892 5890 5889 5887 5886 5885 5885 5884 5884 5883 5883 5882 5881 5881 5880 5880 5880 5880 5880 5880 5880 5880 5881 5881 5881 5881 5881 5881 5882 5882 5883 5883 5884 5884 5885 5885 5885 5885 5886 5886 5887 5887 5888 5888
5902 5900 5898 5896 5895 5893 5892 5890 5889 5888 5887 5886 5885 5885 5884 5884 5882 5882 5881 5881 5881 5882 5882 5881 5881 5881 5882 5882 5883 5882 5883 5883 5883 5883 5883 5884 5885 5885 5886 5886 5886 5886 5886 5887 5887 5888 5888 5888 5888
5904 5902 5901 5899 5897 5896 5894 5892 5891 5890 5889 5888 5887 5886 5886 5885 5884 5883 5883 5883 5883 5883 5883 5883 5883 5883 5883 5884 5884 5884 5884 5884 5885 5885 5885 5885 5886 5886 5887 5887 5887 5887 5887 5888 5888 5888 5888 5889 5889
5906 5905 5903 5902 5900 5898 5897 5895 5894 5892 5890 5889 5888 5888 5887 5887 5886 5885 5885 5885 5885 5885 5885 5885 5885 5885 5885 5886 5886 5886 5886 5886 5886 5887 5887 5887 5887 5887 5887 5888 5888 5888 5888 5888 5889 5889 5889 5889 5889
5907 5908 5906 5904 5902 5900 5899 5898 5896 5895 5893 5891 5890 5889 5889 5889 5888 5888 5887 5887 5887 5887 5887 5887 5887 5887 5887 5888 5888 5888 5888 5888 5888 5888 5888 5888 5888 5889 5889 5889 5889 5889 5889 5889 5889 5889 5889 5889 5890
5910 5912 5909 5907 5905 5903 5902 5901 5899 5897 5895 5894 5893 5892 5891 5890 5890 5890 5889 5889 5889 5889 5889 5889 5889 5889 5889 5890 5890 5890 5890 5890 5890 5889 5889 5889 5890 5890 5890 5890 5890 5889 5889 5889 5889 5889 5889 5890 5890
5913 5914 5912 5910 5908 5906 5905 5903 5901 5900 5898 5896 5895 5894 5893 5892 5892 5892 5892 5892 5891 5891 5891 5891 5891 5891 5891 5892 5892 5892 5891 5891 5891 5891 5891 5891 5891 5891 5891 5891 5890 5890 5890 5890 5890 5890 5890 5890 5890
5916 5916 5914 5912 5910 5909 5907 5906 5904 5902 5900 5899 5897 5896 5895 5895 5895 5894 5894 5894 5894 5894 5894 5893 5893 5893 5894 5894 5894 5894 5893 5893 5893 5893 5892 5892 5892 5892 5892 5891 5891 5890 5890 5890 5890 5890 5890 5889 5889
5919 5918 5916 5914 5913 5912 5910 5909 5907 5905 5904 5902 5900 5899 5899 5898 5898 5897 5897 5896 5896 5896 5896 5896 5896 5896 5896 5896 5896 5895 5895 5895 5894 5894 5894 5893 5893 5893 5893 5892 5892 5891 5891 5890 5890 5890 5889 5889 5888
5920 5919 5918 5916 5915 5914 5913 5912 5910 5908 5907 5905 5904 5903 5902 5901 5900 5900 5899 5899 5899 5899 5899 5898 5898 5898 5898 5898 5897 5897 5897 5897 5896 5895 5895 5894 5894 5894 5893 5893 5892 5892 5891 5890 5890 5890 5889 5889 5888
5922 5921 5920 5919 5918 5916 5916 5915 5913 5911 5909 5909 5907 5906 5905 5904 5903 5903 5902 5902 5902 5901 5901 5901 5901 5901 5900 5900 5899 5899 5898 5898 5897 5897 5896 5895 5895 5894 5894 5893 5893 5892 5891 5891 5890 5890 5889 5888 5888
5922 5922 5922 5921 5920 5919 5918 5917 5916 5914 5912 5911 5910 5909 5908 5907 5906 5905 5905 5904 5904 5904 5903 5903 5903 5902 5902 5901 5901 5900 5900 5899 5899 5898 5897 5896 5896 5895 5894 5893 5893 5892 5892 5891 5890 5890 5889 5888 5887
5923 5923 5923 5923 5922 5921 5922 5920 5918 5916 5915 5914 5913 5912 5911 5910 5909 5908 5907 5907 5906 5906 5905 5905 5905 5904 5904 5903 5903 5902 5901 5900 5900 5899 5898 5897 5896 5895 5894 5894 5893 5892 5892 5891 5890 5890 5888 5887 5887
5923 5924 5924 5924 5922 5922 5923 5922 5920 5918 5918 5917 5915 5914 5913 5912 5911 5911 5910 5909 5909 5908 5908 5907 5906 5906 5905 5905 5904 5903 5902 5902 5901 5900 5899 5898 5897 5896 5895 5894 5893 5892 5892 5891 5890 5889 5888 5887 5886
5924 5924 5924 5924 5924 5924 5924 5923 5922 5921 5920 5919 5918 5917 5916 5915 5914 5913 5912 5911 5911 5910 5910 5909 5908 5907 5907 5906 5905 5904 5904 5903 5902 5901 5899 5898 5897 5896 5895 5894 5893 5892 5891 5890 5889 5888 5887 5886 5885
5924 5924 5924 5925 5924 5924 5924 5924 5924 5923 5921 5920 5919 5919 5918 5917 5916 5915 5914 5913 5912 5912 5911 5910 5910 5909 5908 5907 5906 5905 5904 5904 5903 5902 5900 5899 5898 5896 5895 5894 5893 5892 5891 5890 5889 5888 5887 5886 5885
5923 5924 5924 5925 5925 5925 5925 5925 5924 5924 5922 5921 5921 5920 5919 5918 5918 5917 5916 5915 5914 5913 5912 5911 5911 5910 5909 5909 5908 5907 5906 5905 5904 5902 5901 5900 5898 5897 5895 5894 5893 5892 5890 5889 5888 5887 5886 5885 5884
5922 5923 5924 5924 5924 5924 5925 5924 5924 5924 5923 5922 5922 5921 5921 5920 5919 5918 5917 5916 5915 5915 5914 5913 5912 5911 5910 5910 5909 5908 5906 5905 5904 5903 5902 5900 5899 5897 5896 5894 5893 5892 5890 5889 5887 5886 5885 5884 5883
5920 5922 5922 5923 5923 5924 5924 5924 5924 5923 5923 5922 5922 5922 5921 5920 5920 5919 5918 5917 5917 5916 5915 5914 5913 5912 5911 5910 5909 5909 5907 5906 5905 5904 5902 5901 5899 5898 5896 5895 5893 5892 5890 5889 5887 5885 5884 5883 5881
5919 5920 5921 5922 5922 5922 5923 5923 5924 5922 5921 5921 5921 5921 5921 5920 5920 5920 5919 5918 5918 5917 5916 5915 5914 5913 5912 5911 5910 5909 5908 5906 5905 5903 5902 5901 5899 5898 5896 5895 5893 5892 5890 5888 5887 5885 5883 5882 5880
5916 5918 5919 5919 5920 5920 5921 5921 5922 5920 5921 5921 5921 5920 5920 5920 5919 5919 5919 5919 5918 5917 5916 5916 5915 5914 5913 5911 5910 5909 5908 5906 5905 5903 5902 5900 5899 5897 5896 5894 5893 5891 5889 5887 5886 5884 5882 5881 5879
5913 5915 5916 5916 5917 5918 5919 5919 5920 5919 5920 5920 5920 5920 5919 5919 5919 5919 5919 5918 5918 5917 5916 5915 5915 5913 5912 5911 5910 5909 5907 5906 5904 5903 5902 5900 5898 5896 5895 5893 5892 5890 5888 5886 5884 5883 5881 5879 5877
5909 5911 5913 5914 5914 5916 5916 5915 5918 5918 5918 5918 5919 5918 5918 5918 5918 5918 5918 5918 5917 5916 5915 5915 5914 5913 5912 5911 5910 5908 5907 5905 5903 5902 5901 5899 5897 5896 5894 5892 5891 5889 5887 5885 5883 5881 5880 5878 5876
5905 5907 5910 5911 5911 5912 5913 5914 5915 5915 5916 5916 5916 5917 5917 5916 5916 5916 5916 5917 5917 5916 5915 5915 5914 5913 5912 5910 5909 5907 5906 5904 5902 5901 5899 5898 5896 5894 5893 5891 5889 5887 5885 5883 5882 5880 5878 5876 5874
5901 5904 5905 5905 5907 5908 5910 5910 5912 5913 5913 5914 5914 5914 5914 5915 5915 5915 5915 5915 5915 5914 5914 5914 5913 5912 5911 5909 5908 5906 5905 5903 5902 5900 5898 5897 5895 5893 5891 5889 5888 5886 5884 5882 5880 5878 5876 5874 5872
5897 5899 5900 5901 5903 5904 5906 5909 5910 5911 5911 5912 5912 5913 5913 5913 5914 5914 5914 5914 5913 5913 5913 5913 5912 5911 5910 5908 5907 5905 5903 5902 5900 5899 5897 5895 5893 5891 5889 5888 5886 5884 5882 5880 5878 5876 5874 5872 5870
5891 5894 5896 5898 5900 5901 5902 5906 5906 5907 5908 5909 5910 5910 5911 5911 5912 5912 5912 5912 5912 5911 5911 5911 5910 5909 5908 5906 5905 5903 5902 5900 5899 5897 5895 5893 5891 5889 5887 5885 5883 5881 5879 5877 5875 5873 5871 5869 5867